Time,TemperatureF,DewpointF,PressureIn,WindDirection,WindDirectionDegrees,WindSpeedMPH,WindSpeedGustMPH,Humidity,HourlyPrecipIn,Conditions,Clouds,dailyrainin,SoftwareType,DateUTC
2013-06-17 00:00:00,70.2,70.2,30.12,SSW,202,0.0,0.0,100,0.00,,SCT080,0.00,VWS V14.01,2013-06-17 04:00:00,
2013-06-17 00:01:00,70.2,70.2,30.12,SSW,202,0.0,0.0,100,0.00,,SCT090,0.00,VWS V14.01,2013-06-17 04:01:00,
2013-06-17 00:06:00,70.2,70.2,30.09,SSW,202,0.0,0.0,100,0.00,,SCT090,0.00,VWS V14.01,2013-06-17 04:06:00,
2013-06-17 00:11:00,70.0,70.0,30.09,SSW,202,0.0,0.0,100,0.00,,SCT090,0.00,VWS V14.01,2013-06-17 04:11:00,
2013-06-17 00:16:00,70.0,70.0,30.09,SSW,202,0.0,0.0,100,0.00,,SCT090,0.00,VWS V14.01,2013-06-17 04:16:00,
2013-06-17 00:21:00,70.2,70.2,30.09,SSW,202,0.0,0.0,100,0.00,,CLR,0.00,VWS V14.01,2013-06-17 04:21:00,
2013-06-17 00:26:00,70.2,70.2,30.09,SSW,202,0.0,0.0,100,0.00,,CLR,0.00,VWS V14.01,2013-06-17 04:26:00,
2013-06-17 00:31:00,70.2,70.2,30.09,SSW,202,0.0,0.0,100,0.00,,CLR,0.00,VWS V14.01,2013-06-17 04:31:00,
2013-06-17 00:36:00,70.2,70.2,30.09,SSW,202,0.0,0.0,100,0.00,,CLR,0.00,VWS V14.01,2013-06-17 04:36:00,
2013-06-17 00:41:00,70.2,70.2,30.09,SSW,202,0.0,0.0,100,0.00,,BKN090,0.00,VWS V14.01,2013-06-17 04:41:00,
2013-06-17 00:46:00,70.0,70.0,30.09,SSW,202,0.0,0.0,100,0.00,,BKN090,0.00,VWS V14.01,2013-06-17 04:46:00,
2013-06-17 00:51:00,70.0,70.0,30.09,SSW,202,0.0,0.0,100,0.00,,BKN090,0.00,VWS V14.01,2013-06-17 04:51:00,
2013-06-17 00:56:00,70.0,70.0,30.09,SSW,202,0.0,0.0,100,0.00,,BKN090,0.00,VWS V14.01,2013-06-17 04:56:00,
2013-06-17 01:02:00,69.8,69.8,30.09,SSW,202,0.0,0.0,100,0.00,,SCT090,0.00,VWS V14.01,2013-06-17 05:02:00,
2013-06-17 01:07:00,69.8,69.8,30.09,SSW,202,0.0,0.0,100,0.00,,SCT090,0.00,VWS V14.01,2013-06-17 05:07:00,
2013-06-17 01:12:00,69.8,69.8,30.09,SSW,202,0.0,0.0,100,0.00,,SCT090,0.00,VWS V14.01,2013-06-17 05:12:00,
2013-06-17 01:17:00,69.8,69.8,30.09,SSW,202,0.0,0.0,100,0.00,,SCT090,0.00,VWS V14.01,2013-06-17 05:17:00,
2013-06-17 01:22:00,70.0,70.0,30.09,SSW,202,0.0,0.0,100,0.00,,SCT090,0.00,VWS V14.01,2013-06-17 05:22:00,
2013-06-17 01:27:00,69.8,69.8,30.09,SSW,202,0.0,0.0,100,0.00,,SCT090,0.00,VWS V14.01,2013-06-17 05:27:00,
2013-06-17 01:32:00,69.8,69.8,30.09,SSW,202,0.0,0.0,100,0.00,,SCT090,0.00,VWS V14.01,2013-06-17 05:32:00,
2013-06-17 01:37:00,69.6,69.6,30.09,SSW,202,0.0,0.0,100,0.00,,SCT090,0.00,VWS V14.01,2013-06-17 05:37:00,
2013-06-17 01:42:00,69.6,69.6,30.09,SSW,202,0.0,0.0,100,0.00,,BKN100,0.00,VWS V14.01,2013-06-17 05:42:00,
2013-06-17 01:47:00,69.6,69.6,30.09,SSW,202,0.0,0.0,100,0.00,,BKN100,0.00,VWS V14.01,2013-06-17 05:47:00,
2013-06-17 01:52:00,69.4,69.4,30.09,SSW,202,0.0,0.0,100,0.00,,BKN100,0.00,VWS V14.01,2013-06-17 05:52:00,
2013-06-17 01:57:00,69.3,69.3,30.09,SSW,202,0.0,0.0,100,0.00,,BKN100,0.00,VWS V14.01,2013-06-17 05:57:00,
2013-06-17 02:02:00,69.3,69.3,30.09,SSW,202,0.0,0.0,100,0.00,,OVC100,0.00,VWS V14.01,2013-06-17 06:02:00,
2013-06-17 02:07:00,69.1,69.1,30.09,SSW,202,0.0,0.0,100,0.00,,OVC100,0.00,VWS V14.01,2013-06-17 06:07:00,
2013-06-17 02:12:00,69.1,69.1,30.09,SSW,202,0.0,0.0,100,0.00,,OVC100,0.00,VWS V14.01,2013-06-17 06:12:00,
2013-06-17 02:17:00,68.9,68.9,30.09,SSW,202,0.0,0.0,100,0.00,,OVC100,0.00,VWS V14.01,2013-06-17 06:17:00,
2013-06-17 02:22:00,68.9,68.9,30.09,SSW,202,0.0,0.0,100,0.00,,BKN110,0.00,VWS V14.01,2013-06-17 06:22:00,
2013-06-17 02:27:00,68.9,68.9,30.09,SSW,202,0.0,0.0,100,0.00,,BKN110,0.00,VWS V14.01,2013-06-17 06:27:00,
2013-06-17 02:32:00,68.9,68.9,30.09,SSW,202,0.0,0.0,100,0.00,,BKN110,0.00,VWS V14.01,2013-06-17 06:32:00,
2013-06-17 02:37:00,68.7,68.7,30.09,SSW,202,0.0,0.0,100,0.00,,BKN110,0.00,VWS V14.01,2013-06-17 06:37:00,
2013-06-17 02:42:00,68.7,68.7,30.09,SSW,202,0.0,0.0,100,0.00,,BKN110,0.00,VWS V14.01,2013-06-17 06:42:00,
2013-06-17 02:47:00,68.7,68.7,30.09,SSW,202,0.0,0.0,100,0.00,,BKN110,0.00,VWS V14.01,2013-06-17 06:47:00,
2013-06-17 02:52:00,68.7,68.7,30.09,SSW,202,0.0,0.0,100,0.00,,BKN110,0.00,VWS V14.01,2013-06-17 06:52:00,
2013-06-17 02:57:00,68.5,68.5,30.09,SSW,202,0.0,0.0,100,0.00,,BKN110,0.00,VWS V14.01,2013-06-17 06:57:00,
2013-06-17 03:02:00,68.5,68.5,30.09,SSW,202,0.0,0.0,100,0.00,,SCT110,0.00,VWS V14.01,2013-06-17 07:02:00,
2013-06-17 03:07:00,68.5,68.5,30.09,SSW,202,0.0,0.0,100,0.00,,SCT110,0.00,VWS V14.01,2013-06-17 07:07:00,
2013-06-17 03:12:00,68.4,68.4,30.09,SSW,202,0.0,0.0,100,0.00,,SCT110,0.00,VWS V14.01,2013-06-17 07:12:00,
2013-06-17 03:17:00,68.5,68.5,30.09,SSW,202,0.0,0.0,100,0.00,,SCT110,0.00,VWS V14.01,2013-06-17 07:17:00,
2013-06-17 03:22:00,68.4,68.4,30.09,SSW,202,0.0,0.0,100,0.00,,SCT110,0.00,VWS V14.01,2013-06-17 07:22:00,
2013-06-17 03:27:00,68.4,68.4,30.09,SSW,202,0.0,0.0,100,0.00,,SCT110,0.00,VWS V14.01,2013-06-17 07:27:00,
2013-06-17 03:32:00,68.4,68.4,30.09,SSW,202,0.0,0.0,100,0.00,,SCT110,0.00,VWS V14.01,2013-06-17 07:32:00,
2013-06-17 03:37:00,68.4,68.4,30.09,SSW,202,0.0,0.0,100,0.00,,SCT110,0.00,VWS V14.01,2013-06-17 07:37:00,
2013-06-17 03:42:00,68.4,68.4,30.09,SSW,202,0.0,0.0,100,0.00,,SCT100,0.00,VWS V14.01,2013-06-17 07:42:00,
2013-06-17 03:47:00,68.4,68.4,30.09,SSW,202,0.0,0.0,100,0.00,,SCT100,0.00,VWS V14.01,2013-06-17 07:47:00,
2013-06-17 03:52:00,68.4,68.4,30.09,SSW,202,0.0,0.0,100,0.00,,SCT100,0.00,VWS V14.01,2013-06-17 07:52:00,
2013-06-17 03:57:00,68.5,68.5,30.09,SSW,202,0.0,0.0,100,0.00,,SCT100,0.00,VWS V14.01,2013-06-17 07:57:00,
2013-06-17 04:02:00,68.5,68.5,30.09,SSW,202,0.0,0.0,100,0.00,,BKN120,0.00,VWS V14.01,2013-06-17 08:02:00,
2013-06-17 04:07:00,68.5,68.5,30.06,SSW,202,0.0,0.0,100,0.00,,BKN120,0.00,VWS V14.01,2013-06-17 08:07:00,
2013-06-17 04:12:00,68.5,68.5,30.06,SSW,202,0.0,0.0,100,0.00,,BKN120,0.00,VWS V14.01,2013-06-17 08:12:00,
2013-06-17 04:17:00,68.5,68.5,30.06,SSW,202,0.0,0.0,100,0.00,,BKN120,0.00,VWS V14.01,2013-06-17 08:17:00,
2013-06-17 04:22:00,68.7,68.7,30.06,SSW,202,0.0,0.0,100,0.00,,BKN120,0.00,VWS V14.01,2013-06-17 08:22:00,
2013-06-17 04:27:00,68.7,68.7,30.06,SSW,202,0.0,0.0,100,0.00,,BKN120,0.00,VWS V14.01,2013-06-17 08:27:00,
2013-06-17 04:32:00,68.9,68.9,30.06,SSW,202,0.0,0.0,100,0.00,,BKN120,0.00,VWS V14.01,2013-06-17 08:32:00,
2013-06-17 04:37:00,68.7,68.7,30.06,SSW,202,0.0,0.0,100,0.00,,BKN120,0.00,VWS V14.01,2013-06-17 08:37:00,
2013-06-17 04:42:00,68.9,68.9,30.06,SSW,202,0.0,0.0,100,0.00,,-RA,0.00,VWS V14.01,2013-06-17 08:42:00,
2013-06-17 04:47:00,68.7,68.7,30.09,SSW,202,0.0,0.0,100,0.00,,-RA,0.00,VWS V14.01,2013-06-17 08:47:00,
2013-06-17 04:52:00,68.9,68.9,30.09,SSW,202,0.0,0.0,100,0.00,,-RA,0.00,VWS V14.01,2013-06-17 08:52:00,
2013-06-17 04:57:00,68.9,68.9,30.09,SSW,202,0.0,0.0,100,0.00,,-RA,0.00,VWS V14.01,2013-06-17 08:57:00,
2013-06-17 05:02:00,68.9,68.9,30.06,SSW,202,0.0,0.0,100,0.00,,-RA,0.00,VWS V14.01,2013-06-17 09:02:00,
2013-06-17 05:07:00,68.9,68.9,30.06,SSW,202,0.0,0.0,100,0.00,,-RA,0.00,VWS V14.01,2013-06-17 09:07:00,
2013-06-17 05:12:00,68.9,68.9,30.06,SSW,202,0.0,0.0,100,0.00,,-RA,0.00,VWS V14.01,2013-06-17 09:12:00,
2013-06-17 05:17:00,68.9,68.9,30.06,SSW,202,0.0,0.0,100,0.00,,-RA,0.00,VWS V14.01,2013-06-17 09:17:00,
2013-06-17 05:22:00,69.1,69.1,30.06,SSW,202,0.0,0.0,100,0.00,,SCT120,0.00,VWS V14.01,2013-06-17 09:22:00,
2013-06-17 05:27:00,68.9,68.9,30.06,SSW,202,0.0,0.0,100,0.00,,SCT120,0.00,VWS V14.01,2013-06-17 09:27:00,
2013-06-17 05:32:00,69.1,69.1,30.09,SSW,202,0.0,2.7,100,0.00,,SCT120,0.00,VWS V14.01,2013-06-17 09:32:00,
2013-06-17 05:37:00,69.1,69.1,30.09,SSW,202,0.0,3.1,100,0.00,,SCT120,0.00,VWS V14.01,2013-06-17 09:37:00,
2013-06-17 05:42:00,69.3,69.3,30.09,SSW,202,2.7,4.0,100,0.00,,-RA,0.00,VWS V14.01,2013-06-17 09:42:00,
2013-06-17 05:47:00,69.4,69.4,30.09,SW,225,4.0,4.0,100,0.00,,-RA,0.00,VWS V14.01,2013-06-17 09:47:00,
2013-06-17 05:52:00,69.4,69.4,30.09,SW,225,0.0,2.2,100,0.00,,-RA,0.00,VWS V14.01,2013-06-17 09:52:00,
2013-06-17 05:57:00,69.3,69.3,30.09,SW,225,0.0,0.0,100,0.00,,-RA,0.00,VWS V14.01,2013-06-17 09:57:00,
2013-06-17 06:02:00,69.3,69.3,30.09,SW,225,0.0,0.0,100,0.00,,-RA,0.00,VWS V14.01,2013-06-17 10:02:00,
2013-06-17 06:07:00,69.3,69.3,30.06,SW,225,0.0,0.0,100,0.00,,-RA,0.00,VWS V14.01,2013-06-17 10:07:00,
2013-06-17 06:12:00,68.9,68.9,30.06,SW,225,0.0,0.0,100,0.00,,-RA,0.00,VWS V14.01,2013-06-17 10:12:00,
2013-06-17 06:17:00,68.7,68.7,30.06,SW,225,0.0,0.0,100,0.00,,-RA,0.00,VWS V14.01,2013-06-17 10:17:00,
2013-06-17 06:22:00,68.7,68.7,30.06,SW,225,0.0,0.0,100,0.00,,RA,0.00,VWS V14.01,2013-06-17 10:22:00,
2013-06-17 06:27:00,68.7,68.7,30.06,SW,225,0.0,0.0,100,0.00,,RA,0.00,VWS V14.01,2013-06-17 10:27:00,
2013-06-17 06:32:00,68.2,68.2,30.06,SW,225,0.0,0.0,100,0.00,,RA,0.00,VWS V14.01,2013-06-17 10:32:00,
2013-06-17 06:37:00,68.0,68.0,30.06,SW,225,0.0,0.0,100,0.00,,RA,0.00,VWS V14.01,2013-06-17 10:37:00,
2013-06-17 06:42:00,68.0,68.0,30.06,SW,225,0.0,0.0,100,0.00,,-RA,0.00,VWS V14.01,2013-06-17 10:42:00,
2013-06-17 06:47:00,68.0,68.0,30.06,SW,225,0.0,0.0,100,0.00,,-RA,0.00,VWS V14.01,2013-06-17 10:47:00,
2013-06-17 06:52:00,68.0,68.0,30.06,SW,225,0.0,0.0,100,0.00,,-RA,0.00,VWS V14.01,2013-06-17 10:52:00,
2013-06-17 06:57:00,68.2,68.2,30.06,SW,225,0.0,0.0,100,0.00,,-RA,0.00,VWS V14.01,2013-06-17 10:57:00,
2013-06-17 07:02:00,68.2,68.2,30.06,SW,225,0.0,0.0,100,0.00,,,0.00,VWS V14.01,2013-06-17 11:02:00,
2013-06-17 07:07:00,68.0,68.0,30.06,SW,225,0.0,0.0,100,0.00,,,0.00,VWS V14.01,2013-06-17 11:07:00,
2013-06-17 07:12:00,68.2,68.2,30.06,SW,225,0.0,0.0,100,0.00,,,0.00,VWS V14.01,2013-06-17 11:12:00,
2013-06-17 07:17:00,68.2,68.2,30.06,SW,225,0.0,2.2,100,0.00,,,0.00,VWS V14.01,2013-06-17 11:17:00,
2013-06-17 07:22:00,68.4,68.4,30.06,SW,225,0.0,0.0,100,0.00,,,0.00,VWS V14.01,2013-06-17 11:22:00,
2013-06-17 07:27:00,68.4,68.4,30.06,SW,225,2.2,2.2,100,0.00,,,0.00,VWS V14.01,2013-06-17 11:27:00,
2013-06-17 07:32:00,68.5,68.5,30.06,SW,225,0.0,2.2,100,0.00,,,0.00,VWS V14.01,2013-06-17 11:32:00,
2013-06-17 07:37:00,68.5,68.5,30.06,SW,225,0.0,0.0,100,0.00,,,0.00,VWS V14.01,2013-06-17 11:37:00,
2013-06-17 07:42:00,68.7,68.7,30.06,SW,225,0.0,0.0,100,0.00,,,0.00,VWS V14.01,2013-06-17 11:42:00,
2013-06-17 07:47:00,69.1,69.1,30.09,SW,225,0.0,0.0,100,0.00,,,0.00,VWS V14.01,2013-06-17 11:47:00,
2013-06-17 07:52:00,69.3,69.3,30.09,SW,225,0.0,0.0,100,0.00,,,0.00,VWS V14.01,2013-06-17 11:52:00,
2013-06-17 07:57:00,69.6,69.6,30.09,SW,225,0.0,0.0,100,0.00,,,0.00,VWS V14.01,2013-06-17 11:57:00,
2013-06-17 08:02:00,70.0,70.0,30.06,SW,225,0.0,0.0,100,0.00,,OVC100,0.00,VWS V14.01,2013-06-17 12:02:00,
2013-06-17 08:07:00,70.3,70.3,30.06,SW,225,0.0,0.0,100,0.00,,OVC100,0.00,VWS V14.01,2013-06-17 12:07:00,
2013-06-17 08:12:00,70.5,70.5,30.06,SW,225,0.0,0.0,100,0.00,,OVC100,0.00,VWS V14.01,2013-06-17 12:12:00,
2013-06-17 08:17:00,70.3,70.3,30.06,SW,225,0.0,0.0,100,0.00,,OVC100,0.00,VWS V14.01,2013-06-17 12:17:00,
2013-06-17 08:22:00,70.2,70.2,30.06,SW,225,0.0,0.0,100,0.00,,OVC100,0.00,VWS V14.01,2013-06-17 12:22:00,
2013-06-17 08:27:00,70.2,70.2,30.06,SW,225,0.0,0.0,100,0.00,,OVC100,0.00,VWS V14.01,2013-06-17 12:27:00,
2013-06-17 08:32:00,70.2,70.2,30.09,SW,225,0.0,0.0,100,0.00,,OVC100,0.00,VWS V14.01,2013-06-17 12:32:00,
2013-06-17 08:37:00,70.0,70.0,30.09,SW,225,0.0,0.0,100,0.00,,OVC100,0.00,VWS V14.01,2013-06-17 12:37:00,
2013-06-17 08:42:00,70.0,70.0,30.09,SW,225,0.0,0.0,100,0.00,,,0.00,VWS V14.01,2013-06-17 12:42:00,
2013-06-17 08:47:00,69.8,69.8,30.09,SW,225,0.0,0.0,100,0.00,,,0.00,VWS V14.01,2013-06-17 12:47:00,
2013-06-17 08:52:00,70.0,70.0,30.09,SW,225,0.0,0.0,100,0.00,,,0.00,VWS V14.01,2013-06-17 12:52:00,
2013-06-17 08:58:00,70.2,70.2,30.09,SW,225,0.0,0.0,100,0.00,,,0.00,VWS V14.01,2013-06-17 12:58:00,
2013-06-17 09:03:00,70.2,70.2,30.09,SW,225,0.0,0.0,100,0.00,,,0.00,VWS V14.01,2013-06-17 13:03:00,
2013-06-17 09:08:00,70.2,70.2,30.09,SW,225,0.0,0.0,100,0.00,,,0.00,VWS V14.01,2013-06-17 13:08:00,
2013-06-17 09:13:00,70.3,70.3,30.09,SW,225,2.2,2.2,100,0.00,,,0.00,VWS V14.01,2013-06-17 13:13:00,
2013-06-17 09:18:00,70.3,70.3,30.09,SW,225,0.0,0.0,100,0.00,,,0.00,VWS V14.01,2013-06-17 13:18:00,
2013-06-17 09:23:00,70.7,70.7,30.09,SW,225,0.0,0.0,100,0.00,,,0.00,VWS V14.01,2013-06-17 13:23:00,
2013-06-17 09:28:00,70.9,70.9,30.09,SW,225,0.0,2.2,100,0.00,,,0.00,VWS V14.01,2013-06-17 13:28:00,
2013-06-17 09:33:00,71.1,71.1,30.09,SW,225,0.0,2.7,100,0.00,,,0.00,VWS V14.01,2013-06-17 13:33:00,
2013-06-17 09:38:00,71.4,71.4,30.09,SW,225,0.0,0.0,100,0.00,,,0.00,VWS V14.01,2013-06-17 13:38:00,
2013-06-17 09:43:00,71.6,71.6,30.09,SW,225,0.0,2.2,100,0.00,,BKN110,0.00,VWS V14.01,2013-06-17 13:43:00,
2013-06-17 09:48:00,72.0,72.0,30.09,SW,225,2.7,2.7,100,0.00,,BKN110,0.00,VWS V14.01,2013-06-17 13:48:00,
2013-06-17 09:53:00,72.0,72.0,30.09,SW,225,0.0,0.0,100,0.00,,BKN110,0.00,VWS V14.01,2013-06-17 13:53:00,
2013-06-17 09:58:00,72.7,72.7,30.09,SW,225,0.0,0.0,100,0.00,,BKN110,0.00,VWS V14.01,2013-06-17 13:58:00,
2013-06-17 10:03:00,73.2,73.2,30.09,SW,225,0.0,0.0,100,0.00,,SCT120,0.00,VWS V14.01,2013-06-17 14:03:00,
2013-06-17 10:08:00,73.8,73.8,30.09,SW,225,2.7,2.7,100,0.00,,SCT120,0.00,VWS V14.01,2013-06-17 14:08:00,
2013-06-17 10:13:00,73.9,73.9,30.09,SW,225,2.2,2.2,100,0.00,,SCT120,0.00,VWS V14.01,2013-06-17 14:13:00,
2013-06-17 10:18:00,74.3,74.3,30.09,SW,225,0.0,0.0,100,0.00,,SCT120,0.00,VWS V14.01,2013-06-17 14:18:00,
2013-06-17 10:23:00,74.5,74.5,30.09,SW,225,0.0,0.0,100,0.00,,SCT010,0.00,VWS V14.01,2013-06-17 14:23:00,
2013-06-17 10:28:00,75.2,75.2,30.09,SW,225,0.0,0.0,100,0.00,,SCT010,0.00,VWS V14.01,2013-06-17 14:28:00,
2013-06-17 10:33:00,75.4,75.4,30.09,SW,225,0.0,2.7,100,0.00,,SCT010,0.00,VWS V14.01,2013-06-17 14:33:00,
2013-06-17 10:38:00,75.4,75.4,30.09,SW,225,0.0,0.0,100,0.00,,SCT010,0.00,VWS V14.01,2013-06-17 14:38:00,
2013-06-17 10:43:00,76.1,75.7,30.09,SW,225,0.0,0.0,99,0.00,,BKN110,0.00,VWS V14.01,2013-06-17 14:43:00,
2013-06-17 10:48:00,77.4,76.6,30.09,SW,225,2.2,2.7,98,0.00,,BKN110,0.00,VWS V14.01,2013-06-17 14:48:00,
2013-06-17 10:53:00,77.2,73.6,30.09,SW,225,0.0,2.7,89,0.00,,BKN110,0.00,VWS V14.01,2013-06-17 14:53:00,
2013-06-17 10:58:00,78.3,74.2,30.09,SW,225,0.0,0.0,88,0.00,,BKN110,0.00,VWS V14.01,2013-06-17 14:58:00,
2013-06-17 11:03:00,79.2,74.7,30.09,SW,225,2.7,2.7,86,0.00,,BKN110,0.00,VWS V14.01,2013-06-17 15:03:00,
2013-06-17 11:08:00,79.3,73.6,30.09,SW,225,0.0,4.0,82,0.00,,BKN110,0.00,VWS V14.01,2013-06-17 15:08:00,
2013-06-17 11:13:00,80.8,73.6,30.09,SW,225,3.1,3.1,79,0.00,,BKN110,0.00,VWS V14.01,2013-06-17 15:13:00,
2013-06-17 11:18:00,80.8,72.1,30.09,SW,225,3.6,3.6,75,0.00,,BKN110,0.00,VWS V14.01,2013-06-17 15:18:00,
2013-06-17 11:23:00,80.2,70.6,30.09,SW,225,2.7,4.0,72,0.00,,SCT016,0.00,VWS V14.01,2013-06-17 15:23:00,
2013-06-17 11:28:00,81.1,72.5,30.09,SW,225,0.0,0.0,75,0.00,,SCT016,0.00,VWS V14.01,2013-06-17 15:28:00,
2013-06-17 11:33:00,82.0,72.8,30.09,SW,225,0.0,0.0,74,0.00,,SCT016,0.00,VWS V14.01,2013-06-17 15:33:00,
2013-06-17 11:38:00,82.6,73.9,30.09,SW,225,2.7,2.7,75,0.00,,SCT016,0.00,VWS V14.01,2013-06-17 15:38:00,
2013-06-17 11:43:00,83.8,72.5,30.09,SW,225,3.6,3.6,69,0.00,,BKN018,0.00,VWS V14.01,2013-06-17 15:43:00,
2013-06-17 11:48:00,83.3,70.9,30.09,SW,225,3.1,3.1,66,0.00,,BKN018,0.00,VWS V14.01,2013-06-17 15:48:00,
2013-06-17 11:53:00,82.8,71.4,30.09,South,180,3.6,4.0,69,0.00,,BKN018,0.00,VWS V14.01,2013-06-17 15:53:00,
2013-06-17 11:58:00,82.8,70.9,30.09,South,180,4.0,4.0,68,0.00,,BKN018,0.00,VWS V14.01,2013-06-17 15:58:00,
2013-06-17 12:03:00,83.1,72.3,30.09,South,180,2.7,3.1,70,0.00,,SCT018,0.00,VWS V14.01,2013-06-17 16:03:00,
2013-06-17 12:08:00,83.5,72.1,30.09,NW,315,2.2,2.7,69,0.00,,SCT018,0.00,VWS V14.01,2013-06-17 16:08:00,
2013-06-17 12:13:00,82.9,68.2,30.09,NW,315,0.0,0.0,61,0.00,,SCT018,0.00,VWS V14.01,2013-06-17 16:13:00,
2013-06-17 12:18:00,83.5,67.5,30.09,WSW,248,2.2,3.6,59,0.00,,SCT018,0.00,VWS V14.01,2013-06-17 16:18:00,
2013-06-17 12:23:00,84.4,67.1,30.09,WSW,248,0.0,0.0,56,0.00,,CLR,0.00,VWS V14.01,2013-06-17 16:23:00,
2013-06-17 12:28:00,83.7,67.1,30.09,WSW,248,0.0,0.0,58,0.00,,CLR,0.00,VWS V14.01,2013-06-17 16:28:00,
2013-06-17 12:33:00,85.3,69.8,30.09,WSW,248,2.7,2.7,60,0.00,,CLR,0.00,VWS V14.01,2013-06-17 16:33:00,
2013-06-17 12:38:00,84.9,69.5,30.09,WSW,248,0.0,3.1,60,0.00,,CLR,0.00,VWS V14.01,2013-06-17 16:38:00,
2013-06-17 12:43:00,86.2,67.5,30.09,WSW,248,0.0,0.0,54,0.00,,CLR,0.00,VWS V14.01,2013-06-17 16:43:00,
2013-06-17 12:48:00,87.3,69.8,30.06,WSW,248,3.6,3.6,56,0.00,,CLR,0.00,VWS V14.01,2013-06-17 16:48:00,
2013-06-17 12:53:00,86.2,68.8,30.06,WSW,248,0.0,0.0,56,0.00,,CLR,0.00,VWS V14.01,2013-06-17 16:53:00,
2013-06-17 12:58:00,85.6,70.8,30.06,WSW,248,3.6,3.6,61,0.00,,CLR,0.00,VWS V14.01,2013-06-17 16:58:00,
2013-06-17 13:03:00,85.1,69.7,30.06,WSW,248,3.1,3.1,60,0.00,,CLR,0.00,VWS V14.01,2013-06-17 17:03:00,
2013-06-17 13:08:00,84.4,71.3,30.06,WSW,248,2.7,3.6,65,0.00,,CLR,0.00,VWS V14.01,2013-06-17 17:08:00,
2013-06-17 13:13:00,83.8,69.1,30.06,WSW,248,2.2,2.2,61,0.00,,CLR,0.00,VWS V14.01,2013-06-17 17:13:00,
2013-06-17 13:18:00,85.5,68.1,30.06,WSW,248,0.0,0.0,56,0.00,,CLR,0.00,VWS V14.01,2013-06-17 17:18:00,
2013-06-17 13:23:00,86.4,68.3,30.06,WSW,248,2.7,2.7,55,0.00,,SCT029,0.00,VWS V14.01,2013-06-17 17:23:00,
2013-06-17 13:28:00,86.5,67.8,30.06,WSW,248,2.2,2.2,54,0.00,,SCT029,0.00,VWS V14.01,2013-06-17 17:28:00,
2013-06-17 13:33:00,86.4,68.3,30.06,WSW,248,0.0,0.0,55,0.00,,SCT029,0.00,VWS V14.01,2013-06-17 17:33:00,
2013-06-17 13:38:00,86.5,69.1,30.06,WSW,248,0.0,0.0,56,0.00,,SCT029,0.00,VWS V14.01,2013-06-17 17:38:00,
2013-06-17 13:43:00,84.7,68.7,30.06,WSW,248,0.0,2.7,59,0.00,,BKN055,0.00,VWS V14.01,2013-06-17 17:43:00,
2013-06-17 13:48:00,81.7,69.9,30.06,WSW,248,4.0,4.0,68,0.00,,BKN055,0.00,VWS V14.01,2013-06-17 17:48:00,
2013-06-17 13:53:00,78.4,69.4,30.06,WSW,248,2.7,3.1,74,0.04,,BKN055,0.04,VWS V14.01,2013-06-17 17:53:00,
2013-06-17 13:58:00,74.1,68.9,30.06,WSW,248,4.0,4.0,84,0.29,,BKN055,0.29,VWS V14.01,2013-06-17 17:58:00,
2013-06-17 14:03:00,70.2,68.7,30.09,WSW,248,2.2,4.0,95,0.49,, +RA,0.49,VWS V14.01,2013-06-17 18:03:00,
2013-06-17 14:09:00,68.7,68.7,30.09,WSW,248,0.0,0.0,100,0.54,, +RA,0.54,VWS V14.01,2013-06-17 18:09:00,
2013-06-17 14:14:00,68.5,68.5,30.09,WSW,248,3.1,3.6,100,0.58,, +RA,0.58,VWS V14.01,2013-06-17 18:14:00,
2013-06-17 14:19:00,68.2,68.2,30.09,WSW,248,2.2,3.1,100,0.62,, +RA,0.62,VWS V14.01,2013-06-17 18:19:00,
2013-06-17 14:24:00,68.2,68.2,30.09,WSW,248,0.0,0.0,100,0.70,, +RA,0.70,VWS V14.01,2013-06-17 18:24:00,
2013-06-17 14:29:00,68.2,68.2,30.09,WSW,248,0.0,0.0,100,0.70,, +RA,0.70,VWS V14.01,2013-06-17 18:29:00,
2013-06-17 14:34:00,68.2,68.2,30.09,WSW,248,0.0,0.0,100,0.70,, +RA,0.70,VWS V14.01,2013-06-17 18:34:00,
2013-06-17 14:39:00,68.5,68.5,30.09,WSW,248,0.0,0.0,100,0.75,, +RA,0.75,VWS V14.01,2013-06-17 18:39:00,
2013-06-17 14:44:00,69.1,69.1,30.09,WSW,248,0.0,0.0,100,0.75,,-RA,0.75,VWS V14.01,2013-06-17 18:44:00,
2013-06-17 14:49:00,69.4,69.4,30.06,WSW,248,0.0,0.0,100,0.75,,-RA,0.75,VWS V14.01,2013-06-17 18:49:00,
2013-06-17 14:54:00,70.3,70.3,30.06,WSW,248,0.0,0.0,100,0.71,,-RA,0.75,VWS V14.01,2013-06-17 18:54:00,
2013-06-17 14:59:00,71.4,71.4,30.06,WSW,248,2.7,2.7,100,0.46,,-RA,0.75,VWS V14.01,2013-06-17 18:59:00,
2013-06-17 15:04:00,71.2,71.2,30.06,WSW,248,2.2,4.0,100,0.26,,BKN120,0.75,VWS V14.01,2013-06-17 19:04:00,
2013-06-17 15:09:00,71.4,71.4,30.06,WSW,248,0.0,0.0,100,0.21,,BKN120,0.75,VWS V14.01,2013-06-17 19:09:00,
2013-06-17 15:14:00,71.6,71.6,30.06,WSW,248,0.0,0.0,100,0.17,,BKN120,0.75,VWS V14.01,2013-06-17 19:14:00,
2013-06-17 15:19:00,72.0,72.0,30.06,WSW,248,0.0,0.0,100,0.13,,BKN120,0.75,VWS V14.01,2013-06-17 19:19:00,
2013-06-17 15:24:00,72.9,72.9,30.06,WSW,248,2.7,2.7,100,0.05,,SCT090,0.75,VWS V14.01,2013-06-17 19:24:00,
2013-06-17 15:29:00,74.1,74.1,30.06,WSW,248,0.0,0.0,100,0.05,,SCT090,0.75,VWS V14.01,2013-06-17 19:29:00,
2013-06-17 15:34:00,73.9,73.9,30.06,WSW,248,2.2,2.2,100,0.05,,SCT090,0.75,VWS V14.01,2013-06-17 19:34:00,
2013-06-17 15:39:00,73.8,73.8,30.06,WSW,248,0.0,0.0,100,0.00,,SCT090,0.75,VWS V14.01,2013-06-17 19:39:00,
2013-06-17 15:44:00,73.8,73.8,30.06,WSW,248,0.0,0.0,100,0.00,,CLR,0.75,VWS V14.01,2013-06-17 19:44:00,
2013-06-17 15:49:00,75.0,75.0,30.03,WSW,248,0.0,2.2,100,0.00,,CLR,0.75,VWS V14.01,2013-06-17 19:49:00,
2013-06-17 15:54:00,75.0,75.0,30.03,WSW,248,2.7,3.6,100,0.00,,CLR,0.75,VWS V14.01,2013-06-17 19:54:00,
2013-06-17 15:59:00,75.0,75.0,30.03,WSW,248,2.2,2.2,100,0.00,,CLR,0.75,VWS V14.01,2013-06-17 19:59:00,
2013-06-17 16:04:00,75.6,75.6,30.03,WSW,248,0.0,3.1,100,0.00,,SCT100,0.75,VWS V14.01,2013-06-17 20:04:00,
2013-06-17 16:09:00,75.7,75.8,30.03,WSW,248,2.7,3.1,100,0.00,,SCT100,0.75,VWS V14.01,2013-06-17 20:09:00,
2013-06-17 16:14:00,75.7,75.8,30.03,WSW,248,2.7,2.7,100,0.00,,SCT100,0.75,VWS V14.01,2013-06-17 20:14:00,
2013-06-17 16:19:00,76.5,76.5,30.03,WSW,248,2.2,2.2,100,0.00,,SCT100,0.75,VWS V14.01,2013-06-17 20:19:00,
2013-06-17 16:24:00,76.8,76.8,30.03,WSW,248,0.0,3.1,100,0.00,,CLR,0.75,VWS V14.01,2013-06-17 20:24:00,
2013-06-17 16:29:00,76.3,76.3,30.03,WSW,248,2.7,4.0,100,0.00,,CLR,0.75,VWS V14.01,2013-06-17 20:29:00,
2013-06-17 16:34:00,76.1,76.1,30.03,WSW,248,0.0,0.0,100,0.00,,CLR,0.75,VWS V14.01,2013-06-17 20:34:00,
2013-06-17 16:39:00,76.5,76.5,30.03,WSW,248,3.1,3.1,100,0.00,,CLR,0.75,VWS V14.01,2013-06-17 20:39:00,
2013-06-17 16:44:00,76.6,75.5,30.03,WSW,248,3.6,3.6,96,0.00,,CLR,0.75,VWS V14.01,2013-06-17 20:44:00,
2013-06-17 16:49:00,76.8,74.1,30.03,WSW,248,0.0,3.6,91,0.00,,CLR,0.75,VWS V14.01,2013-06-17 20:49:00,
2013-06-17 16:54:00,76.8,73.7,30.03,WSW,248,0.0,3.6,90,0.00,,CLR,0.75,VWS V14.01,2013-06-17 20:54:00,
2013-06-17 16:59:00,76.8,73.7,30.03,WSW,248,0.0,2.7,90,0.00,,CLR,0.75,VWS V14.01,2013-06-17 20:59:00,
2013-06-17 17:04:00,76.8,74.1,30.03,WSW,248,2.7,2.7,91,0.00,,CLR,0.75,VWS V14.01,2013-06-17 21:04:00,
2013-06-17 17:10:00,77.0,74.3,30.03,WSW,248,2.7,2.7,91,0.00,,CLR,0.75,VWS V14.01,2013-06-17 21:10:00,
2013-06-17 17:15:00,76.5,73.3,30.03,WSW,248,2.7,2.7,90,0.00,,CLR,0.75,VWS V14.01,2013-06-17 21:15:00,
2013-06-17 17:20:00,76.3,73.9,30.03,WSW,248,4.0,4.0,92,0.00,,CLR,0.75,VWS V14.01,2013-06-17 21:20:00,
2013-06-17 17:25:00,76.3,74.3,30.03,WSW,248,0.0,0.0,94,0.00,,CLR,0.75,VWS V14.01,2013-06-17 21:25:00,
2013-06-17 17:30:00,76.5,74.5,30.03,WSW,248,0.0,0.0,94,0.00,,CLR,0.75,VWS V14.01,2013-06-17 21:30:00,
2013-06-17 17:35:00,76.6,74.7,30.03,WSW,248,0.0,0.0,94,0.00,,CLR,0.75,VWS V14.01,2013-06-17 21:35:00,
2013-06-17 17:40:00,76.6,75.1,30.03,WSW,248,0.0,0.0,95,0.00,,CLR,0.75,VWS V14.01,2013-06-17 21:40:00,
2013-06-17 17:45:00,76.5,74.1,30.03,WSW,248,3.1,3.1,92,0.00,,CLR,0.75,VWS V14.01,2013-06-17 21:45:00,
2013-06-17 17:50:00,76.1,72.5,30.03,WSW,248,0.0,0.0,89,0.00,,CLR,0.75,VWS V14.01,2013-06-17 21:50:00,
2013-06-17 17:55:00,76.3,73.6,30.03,WSW,248,0.0,0.0,91,0.00,,CLR,0.75,VWS V14.01,2013-06-17 21:55:00,
2013-06-17 18:00:00,76.6,74.7,30.03,WSW,248,0.0,0.0,94,0.00,,CLR,0.75,VWS V14.01,2013-06-17 22:00:00,
2013-06-17 18:05:00,76.6,73.5,30.03,WSW,248,0.0,0.0,90,0.00,,CLR,0.75,VWS V14.01,2013-06-17 22:05:00,
2013-06-17 18:10:00,76.6,72.7,30.03,WSW,248,0.0,2.2,88,0.00,,CLR,0.75,VWS V14.01,2013-06-17 22:10:00,
2013-06-17 18:15:00,76.6,73.5,30.03,WSW,248,0.0,0.0,90,0.00,,CLR,0.75,VWS V14.01,2013-06-17 22:15:00,
2013-06-17 18:20:00,76.8,73.7,30.03,WSW,248,0.0,0.0,90,0.00,,CLR,0.75,VWS V14.01,2013-06-17 22:20:00,
2013-06-17 18:25:00,76.5,72.5,30.03,WSW,248,0.0,0.0,88,0.00,,CLR,0.75,VWS V14.01,2013-06-17 22:25:00,
2013-06-17 18:30:00,76.3,73.1,30.03,WSW,248,0.0,0.0,90,0.00,,CLR,0.75,VWS V14.01,2013-06-17 22:30:00,
2013-06-17 18:35:00,75.9,72.4,30.03,WSW,248,0.0,0.0,89,0.00,,CLR,0.75,VWS V14.01,2013-06-17 22:35:00,
2013-06-17 18:40:00,75.9,71.9,30.03,WSW,248,0.0,0.0,88,0.00,,SCT120,0.75,VWS V14.01,2013-06-17 22:40:00,
2013-06-17 18:45:00,76.1,73.4,30.03,WSW,248,0.0,0.0,91,0.00,,SCT120,0.75,VWS V14.01,2013-06-17 22:45:00,
2013-06-17 18:50:00,76.3,73.9,30.03,WSW,248,0.0,0.0,92,0.00,,SCT120,0.75,VWS V14.01,2013-06-17 22:50:00,
2013-06-17 18:55:00,76.1,72.1,30.03,WSW,248,0.0,0.0,88,0.00,,SCT120,0.75,VWS V14.01,2013-06-17 22:55:00,
2013-06-17 19:00:00,76.1,72.5,30.03,WSW,248,0.0,0.0,89,0.00,,SCT120,0.75,VWS V14.01,2013-06-17 23:00:00,
2013-06-17 19:05:00,76.1,73.0,30.03,WSW,248,0.0,0.0,90,0.00,,SCT120,0.75,VWS V14.01,2013-06-17 23:05:00,
2013-06-17 19:10:00,75.9,74.0,30.03,WSW,248,0.0,0.0,94,0.00,,SCT120,0.75,VWS V14.01,2013-06-17 23:10:00,
2013-06-17 19:15:00,75.7,74.2,30.03,WSW,248,0.0,0.0,95,0.00,,SCT120,0.75,VWS V14.01,2013-06-17 23:15:00,
2013-06-17 19:20:00,75.4,74.6,30.03,WSW,248,0.0,0.0,98,0.00,,SCT120,0.75,VWS V14.01,2013-06-17 23:20:00,
2013-06-17 19:25:00,75.0,74.7,30.03,WSW,248,0.0,0.0,99,0.00,,SCT120,0.75,VWS V14.01,2013-06-17 23:25:00,
2013-06-17 19:30:00,75.0,75.0,30.03,WSW,248,0.0,0.0,100,0.00,,SCT120,0.75,VWS V14.01,2013-06-17 23:30:00,
2013-06-17 19:35:00,74.8,74.8,30.00,WSW,248,0.0,0.0,100,0.00,,SCT120,0.75,VWS V14.01,2013-06-17 23:35:00,
2013-06-17 19:41:00,74.8,74.8,30.00,WSW,248,0.0,0.0,100,0.00,,CLR,0.75,VWS V14.01,2013-06-17 23:41:00,
2013-06-17 19:46:00,74.8,74.8,30.03,WSW,248,0.0,0.0,100,0.00,,CLR,0.75,VWS V14.01,2013-06-17 23:46:00,
2013-06-17 19:51:00,74.3,74.3,30.03,WSW,248,0.0,0.0,100,0.00,,CLR,0.75,VWS V14.01,2013-06-17 23:51:00,
2013-06-17 19:56:00,73.9,73.9,30.03,WSW,248,0.0,0.0,100,0.00,,CLR,0.75,VWS V14.01,2013-06-17 23:56:00,
2013-06-17 20:01:00,73.8,73.8,30.03,WSW,248,0.0,0.0,100,0.00,,CLR,0.75,VWS V14.01,2013-06-18 00:01:00,
2013-06-17 20:06:00,73.2,73.2,30.03,WSW,248,0.0,0.0,100,0.00,,CLR,0.75,VWS V14.01,2013-06-18 00:06:00,
2013-06-17 20:11:00,72.9,72.9,30.03,WSW,248,0.0,0.0,100,0.00,,CLR,0.75,VWS V14.01,2013-06-18 00:11:00,
2013-06-17 20:16:00,72.7,72.7,30.03,WSW,248,0.0,0.0,100,0.00,,CLR,0.75,VWS V14.01,2013-06-18 00:16:00,
2013-06-17 20:21:00,72.3,72.3,30.03,WSW,248,0.0,0.0,100,0.00,,CLR,0.75,VWS V14.01,2013-06-18 00:21:00,
2013-06-17 20:26:00,72.1,72.2,30.03,WSW,248,0.0,0.0,100,0.00,,CLR,0.75,VWS V14.01,2013-06-18 00:26:00,
2013-06-17 20:31:00,71.8,71.8,30.03,WSW,248,0.0,0.0,100,0.00,,CLR,0.75,VWS V14.01,2013-06-18 00:31:00,
2013-06-17 20:36:00,71.8,71.8,30.03,WSW,248,0.0,0.0,100,0.00,,CLR,0.75,VWS V14.01,2013-06-18 00:36:00,
2013-06-17 20:41:00,71.6,71.6,30.03,WSW,248,0.0,0.0,100,0.00,,CLR,0.75,VWS V14.01,2013-06-18 00:41:00,
2013-06-17 20:46:00,71.6,71.6,30.03,WSW,248,0.0,0.0,100,0.00,,CLR,0.75,VWS V14.01,2013-06-18 00:46:00,
2013-06-17 20:51:00,71.4,71.4,30.03,WSW,248,0.0,0.0,100,0.00,,CLR,0.75,VWS V14.01,2013-06-18 00:51:00,
2013-06-17 20:56:00,71.4,71.4,30.03,WSW,248,0.0,0.0,100,0.00,,CLR,0.75,VWS V14.01,2013-06-18 00:56:00,
2013-06-17 21:01:00,71.4,71.4,30.03,WSW,248,0.0,0.0,100,0.00,,CLR,0.75,VWS V14.01,2013-06-18 01:01:00,
2013-06-17 21:06:00,71.2,71.2,30.03,WSW,248,0.0,0.0,100,0.00,,CLR,0.75,VWS V14.01,2013-06-18 01:06:00,
2013-06-17 21:11:00,71.2,71.2,30.03,WSW,248,0.0,0.0,100,0.00,,CLR,0.75,VWS V14.01,2013-06-18 01:11:00,
2013-06-17 21:16:00,71.1,71.1,30.03,WSW,248,0.0,0.0,100,0.00,,CLR,0.75,VWS V14.01,2013-06-18 01:16:00,
2013-06-17 21:21:00,71.1,71.1,30.03,WSW,248,0.0,0.0,100,0.00,,CLR,0.75,VWS V14.01,2013-06-18 01:21:00,
2013-06-17 21:26:00,70.9,70.9,30.03,WSW,248,0.0,0.0,100,0.00,,CLR,0.75,VWS V14.01,2013-06-18 01:26:00,
2013-06-17 21:31:00,70.9,70.9,30.03,WSW,248,0.0,0.0,100,0.00,,CLR,0.75,VWS V14.01,2013-06-18 01:31:00,
2013-06-17 21:36:00,71.1,71.1,30.03,WSW,248,0.0,0.0,100,0.00,,CLR,0.75,VWS V14.01,2013-06-18 01:36:00,
2013-06-17 21:41:00,71.1,71.1,30.03,WSW,248,0.0,0.0,100,0.00,,SCT120,0.75,VWS V14.01,2013-06-18 01:41:00,
2013-06-17 21:46:00,71.2,71.2,30.03,WSW,248,0.0,0.0,100,0.00,,SCT120,0.75,VWS V14.01,2013-06-18 01:46:00,
2013-06-17 21:51:00,71.1,71.1,30.03,WSW,248,0.0,0.0,100,0.00,,SCT120,0.75,VWS V14.01,2013-06-18 01:51:00,
2013-06-17 21:56:00,71.1,71.1,30.03,WSW,248,0.0,0.0,100,0.00,,SCT120,0.75,VWS V14.01,2013-06-18 01:56:00,
2013-06-17 22:01:00,71.1,71.1,30.03,WSW,248,0.0,0.0,100,0.00,,SCT120,0.75,VWS V14.01,2013-06-18 02:01:00,
2013-06-17 22:06:00,71.1,71.1,30.03,WSW,248,0.0,0.0,100,0.00,,SCT120,0.75,VWS V14.01,2013-06-18 02:06:00,
2013-06-17 22:11:00,70.9,70.9,30.03,WSW,248,0.0,0.0,100,0.00,,SCT120,0.75,VWS V14.01,2013-06-18 02:11:00,
2013-06-17 22:16:00,71.1,71.1,30.03,WSW,248,0.0,0.0,100,0.00,,SCT120,0.75,VWS V14.01,2013-06-18 02:16:00,
2013-06-17 22:21:00,70.9,70.9,30.03,WSW,248,0.0,0.0,100,0.00,,,0.75,VWS V14.01,2013-06-18 02:21:00,
2013-06-17 22:26:00,70.9,70.9,30.03,WSW,248,0.0,0.0,100,0.00,,,0.75,VWS V14.01,2013-06-18 02:26:00,
2013-06-17 22:31:00,70.9,70.9,30.06,WSW,248,0.0,0.0,100,0.00,,,0.75,VWS V14.01,2013-06-18 02:31:00,
2013-06-17 22:36:00,70.7,70.7,30.06,WSW,248,0.0,0.0,100,0.00,,,0.75,VWS V14.01,2013-06-18 02:36:00,
2013-06-17 22:41:00,70.7,70.7,30.06,WSW,248,0.0,0.0,100,0.00,,OVC120,0.75,VWS V14.01,2013-06-18 02:41:00,
2013-06-17 22:46:00,71.1,71.1,30.06,WSW,248,0.0,0.0,100,0.00,,OVC120,0.75,VWS V14.01,2013-06-18 02:46:00,
2013-06-17 22:52:00,71.1,71.1,30.06,WSW,248,0.0,0.0,100,0.00,,OVC120,0.75,VWS V14.01,2013-06-18 02:52:00,
2013-06-17 22:57:00,71.1,71.1,30.06,WSW,248,0.0,0.0,100,0.00,,OVC120,0.75,VWS V14.01,2013-06-18 02:57:00,
2013-06-17 23:02:00,71.2,71.2,30.06,WSW,248,0.0,0.0,100,0.00,,,0.75,VWS V14.01,2013-06-18 03:02:00,
2013-06-17 23:07:00,71.2,71.2,30.06,WSW,248,0.0,2.7,100,0.00,,,0.75,VWS V14.01,2013-06-18 03:07:00,
2013-06-17 23:12:00,71.1,71.1,30.06,WSW,248,0.0,0.0,100,0.00,,,0.75,VWS V14.01,2013-06-18 03:12:00,
2013-06-17 23:17:00,71.1,71.1,30.06,WSW,248,0.0,0.0,100,0.00,,,0.75,VWS V14.01,2013-06-18 03:17:00,
2013-06-17 23:22:00,71.1,71.1,30.06,WSW,248,0.0,0.0,100,0.00,,,0.75,VWS V14.01,2013-06-18 03:22:00,
2013-06-17 23:27:00,71.1,71.1,30.06,WSW,248,0.0,0.0,100,0.00,,,0.75,VWS V14.01,2013-06-18 03:27:00,
2013-06-17 23:32:00,71.1,71.1,30.03,WSW,248,0.0,0.0,100,0.00,,,0.75,VWS V14.01,2013-06-18 03:32:00,
2013-06-17 23:37:00,71.1,71.1,30.03,WSW,248,0.0,0.0,100,0.00,,,0.75,VWS V14.01,2013-06-18 03:37:00,
2013-06-17 23:42:00,71.1,71.1,30.03,WSW,248,0.0,0.0,100,0.00,,RA,0.75,VWS V14.01,2013-06-18 03:42:00,
2013-06-17 23:47:00,71.1,71.1,30.06,WSW,248,2.7,2.7,100,0.00,,RA,0.75,VWS V14.01,2013-06-18 03:47:00,
2013-06-17 23:52:00,71.1,71.1,30.06,WSW,248,0.0,0.0,100,0.00,,RA,0.75,VWS V14.01,2013-06-18 03:52:00,
2013-06-17 23:57:00,71.1,71.1,30.06,WSW,248,0.0,0.0,100,0.00,,RA,0.75,VWS V14.01,2013-06-18 03:57:00,